Temp
-6 -6 -6 -5 -5 -5 -5 -5 -5 -5 -5 -5 -4 -4 -4 -4 -4 -4 -5 -5 -5 -5 -5 -5 -5 -5 -5 -6 -6 -6 -6 -6 -6 -6 -6 -6 -6 -6 -6 -6 -6 -6 -7 -7 -7 -7 -7 -7 -7
-6 -6 -6 -5 -5 -6 -5 -5 -5 -5 -5 -5 -5 -4 -5 -5 -5 -5 -6 -5 -5 -5 -6 -6 -6 -6 -6 -6 -6 -6 -6 -6 -6 -6 -7 -7 -7 -7 -7 -7 -7 -7 -7 -7 -7 -7 -7 -7 -8
-6 -6 -6 -5 -5 -4 -5 -5 -5 -5 -5 -5 -5 -5 -5 -5 -5 -6 -6 -6 -6 -6 -6 -6 -6 -6 -6 -6 -6 -6 -7 -7 -7 -7 -7 -7 -7 -8 -8 -7 -7 -7 -7 -7 -7 -7 -7 -7 -7
-5 -5 -5 -5 -5 -4 -5 -5 -5 -5 -5 -5 -5 -5 -5 -5 -6 -6 -6 -6 -6 -6 -6 -6 -6 -6 -6 -7 -7 -7 -7 -7 -7 -8 -8 -7 -7 -7 -8 -8 -8 -8 -8 -8 -8 -7 -7 -7 -7
-5 -5 -5 -5 -5 -5 -5 -5 -5 -5 -5 -5 -5 -5 -6 -6 -6 -6 -7 -7 -7 -7 -7 -7 -7 -7 -7 -7 -7 -7 -7 -7 -7 -8 -8 -8 -8 -8 -8 -8 -8 -8 -8 -8 -8 -8 -8 -7 -7
-5 -5 -5 -5 -5 -5 -5 -5 -5 -5 -5 -5 -6 -6 -6 -6 -6 -7 -7 -7 -7 -7 -7 -7 -7 -7 -8 -7 -7 -8 -8 -8 -8 -8 -8 -8 -8 -8 -8 -8 -8 -9 -9 -8 -8 -8 -8 -8 -8
-5 -5 -5 -5 -5 -5 -5 -5 -5 -5 -5 -6 -6 -6 -6 -6 -7 -7 -7 -7 -7 -7 -7 -7 -7 -8 -8 -8 -8 -8 -8 -9 -9 -9 -9 -9 -9 -9 -9 -9 -9 -9 -9 -9 -9 -9 -8 -8 -8
-5 -5 -5 -5 -5 -5 -5 -5 -5 -5 -6 -6 -6 -6 -6 -7 -7 -7 -7 -7 -7 -7 -7 -7 -8 -8 -8 -8 -8 -8 -9 -9 -9 -9 -9 -9 -9 -9 -9 -9 -9 -9 -9 -9 -9 -9 -9 -9 -9
-5 -5 -5 -5 -5 -5 -5 -5 -5 -5 -5 -6 -6 -7 -6 -7 -7 -7 -7 -7 -8 -8 -8 -8 -8 -8 -8 -8 -8 -9 -9 -9 -9 -9 -9 -9 -9 -9 -9 -9 -9 -9 -9 -9 -9 -9 -9 -9 -9
-5 -5 -5 -5 -5 -5 -5 -6 -6 -6 -6 -6 -7 -7 -7 -7 -7 -7 -7 -8 -8 -8 -8 -8 -8 -8 -8 -8 -8 -9 -9 -9 -9 -9 -9 -8 -8 -8 -8 -8 -9 -9 -9 -9 -9 -9 -9 -9 -9
-6 -5 -6 -5 -6 -5 -5 -6 -6 -6 -6 -6 -7 -7 -7 -7 -7 -7 -7 -8 -8 -8 -8 -8 -8 -8 -8 -8 -9 -9 -9 -9 -9 -9 -8 -8 -8 -8 -8 -8 -8 -8 -8 -9 -9 -9 -9 -10 -10
-6 -6 -6 -6 -6 -5 -6 -6 -6 -6 -6 -7 -7 -7 -7 -8 -8 -8 -8 -8 -8 -8 -8 -8 -8 -8 -8 -9 -9 -9 -9 -9 -9 -8 -8 -8 -8 -9 -9 -8 -9 -9 -9 -9 -9 -9 -9 -9 -9
-6 -6 -6 -6 -6 -6 -6 -6 -6 -6 -6 -7 -7 -7 -7 -8 -8 -8 -8 -8 -8 -8 -8 -8 -8 -8 -8 -8 -9 -9 -9 -9 -9 -9 -8 -8 -9 -9 -9 -8 -8 -9 -9 -9 -9 -9 -9 -9 -9
-6 -6 -6 -6 -6 -6 -5 -6 -6 -6 -7 -7 -7 -7 -8 -8 -8 -8 -8 -8 -8 -8 -8 -8 -8 -8 -8 -8 -9 -9 -9 -9 -9 -9 -9 -9 -9 -9 -9 -9 -9 -9 -9 -9 -9 -9 -9 -9 -9
-6 -6 -6 -6 -6 -6 -6 -6 -6 -6 -7 -7 -7 -7 -8 -8 -8 -8 -8 -8 -8 -8 -8 -9 -8 -8 -8 -8 -9 -9 -9 -9 -9 -9 -9 -9 -9 -9 -9 -9 -9 -9 -9 -9 -9 -9 -9 -10 -9
-6 -6 -6 -6 -6 -6 -6 -6 -6 -6 -7 -7 -7 -7 -8 -8 -8 -8 -8 -8 -8 -8 -8 -8 -8 -8 -8 -9 -9 -9 -9 -9 -9 -9 -9 -9 -9 -9 -9 -9 -9 -9 -9 -9 -9 -9 -9 -9 -9
-6 -6 -6 -6 -6 -6 -6 -6 -5 -7 -7 -7 -7 -7 -7 -8 -8 -8 -8 -8 -8 -8 -8 -8 -9 -8 -8 -8 -9 -9 -9 -9 -9 -9 -9 -9 -9 -9 -9 -9 -9 -10 -10 -10 -10 -9 -9 -9 -9
-6 -6 -6 -6 -6 -6 -6 -6 -6 -7 -7 -7 -7 -7 -7 -8 -8 -8 -8 -8 -8 -8 -8 -8 -9 -9 -8 -9 -9 -9 -9 -9 -9 -9 -9 -9 -9 -9 -9 -10 -10 -10 -10 -10 -10 -10 -10 -10 -10
-6 -7 -6 -7 -6 -6 -6 -6 -7 -6 -7 -7 -7 -8 -8 -7 -8 -8 -8 -8 -8 -8 -8 -9 -8 -9 -9 -9 -9 -9 -9 -9 -9 -9 -9 -9 -9 -10 -10 -10 -10 -10 -11 -11 -11 -11 -11 -11 -11
-7 -7 -7 -7 -7 -6 -7 -6 -7 -7 -7 -8 -7 -8 -8 -8 -8 -8 -8 -9 -8 -9 -9 -8 -9 -9 -9 -9 -9 -9 -10 -10 -9 -9 -10 -9 -10 -10 -10 -10 -11 -11 -11 -11 -11 -11 -11 -12 -12
-7 -7 -7 -7 -6 -7 -7 -6 -7 -7 -7 -7 -8 -8 -8 -8 -8 -8 -8 -9 -9 -9 -8 -9 -9 -9 -9 -9 -10 -10 -10 -10 -10 -10 -10 -10 -10 -10 -10 -10 -10 -11 -11 -11 -11 -11 -12 -12 -13
-7 -7 -8 -8 -8 -8 -7 -6 -7 -8 -8 -8 -8 -8 -8 -8 -8 -8 -8 -8 -9 -8 -9 -9 -9 -9 -9 -9 -10 -10 -10 -10 -10 -10 -10 -10 -10 -10 -10 -11 -11 -11 -11 -12 -12 -12 -13 -14 -15
-7 -8 -8 -8 -8 -8 -7 -7 -6 -8 -8 -8 -8 -9 -9 -8 -8 -8 -8 -8 -9 -9 -9 -9 -9 -9 -10 -10 -10 -10 -10 -10 -10 -10 -10 -10 -10 -11 -11 -12 -11 -12 -12 -12 -13 -14 -15 -17 -18
-8 -9 -9 -9 -9 -7 -8 -9 -6 -8 -8 -8 -8 -9 -9 -8 -8 -8 -8 -8 -9 -9 -10 -10 -9 -10 -10 -10 -10 -10 -10 -10 -10 -10 -10 -11 -11 -11 -12 -12 -12 -12 -12 -13 -14 -16 -18 -19 -19
-9 -9 -9 -10 -9 -8 -9 -10 -7 -8 -8 -8 -8 -9 -9 -8 -8 -8 -9 -9 -9 -10 -10 -10 -10 -10 -10 -10 -10 -10 -10 -10 -10 -10 -11 -11 -11 -12 -12 -12 -12 -13 -13 -15 -17 -18 -20 -20 -21
-10 -10 -10 -11 -10 -9 -9 -8 -8 -8 -8 -9 -9 -9 -9 -9 -9 -8 -9 -9 -10 -10 -10 -10 -10 -10 -10 -10 -10 -10 -10 -10 -10 -10 -10 -11 -12 -12 -12 -12 -13 -13 -14 -17 -19 -21 -21 -23 -24
-10 -10 -11 -11 -10 -11 -9 -9 -8 -8 -9 -9 -8 -9 -9 -9 -9 -9 -9 -10 -10 -10 -10 -10 -10 -10 -10 -10 -10 -10 -11 -11 -10 -10 -11 -12 -12 -12 -12 -13 -13 -15 -17 -19 -21 -22 -23 -24 -25
-11 -10 -10 -11 -10 -10 -9 -9 -9 -9 -9 -8 -8 -9 -9 -9 -9 -10 -10 -10 -10 -10 -10 -10 -10 -10 -10 -10 -11 -11 -11 -11 -11 -11 -12 -12 -12 -13 -13 -13 -14 -17 -19 -21 -22 -23 -24 -24 -24
-11 -11 -11 -11 -10 -10 -10 -9 -9 -10 -10 -9 -9 -10 -10 -9 -9 -10 -10 -10 -10 -10 -10 -10 -10 -10 -10 -10 -11 -11 -11 -11 -11 -11 -12 -13 -13 -13 -13 -14 -16 -19 -20 -22 -23 -24 -24 -23 -23
-11 -11 -11 -11 -10 -10 -10 -9 -9 -10 -10 -10 -9 -10 -10 -10 -9 -10 -10 -10 -10 -10 -10 -10 -10 -10 -11 -11 -11 -11 -11 -11 -11 -12 -12 -13 -13 -14 -14 -15 -18 -19 -20 -23 -23 -24 -24 -24 -23
Height
5907 5908 5910 5912 5916 5915 5915 5917 5917 5917 5918 5919 5920 5920 5921 5921 5921 5924 5923 5922 5921 5921 5921 5920 5919 5918 5917 5915 5914 5913 5912 5911 5910 5908 5906 5905 5902 5901 5900 5898 5896 5895 5894 5893 5892 5892 5893 5893 5893
5907 5908 5910 5912 5915 5915 5916 5917 5918 5918 5919 5920 5921 5921 5922 5922 5922 5922 5923 5922 5921 5921 5921 5920 5919 5918 5918 5916 5915 5913 5912 5912 5910 5908 5906 5905 5903 5902 5900 5898 5896 5894 5893 5892 5891 5891 5891 5891 5891
5908 5909 5912 5913 5914 5913 5915 5917 5918 5919 5920 5921 5922 5923 5923 5923 5923 5922 5922 5922 5921 5921 5921 5920 5920 5919 5918 5917 5915 5914 5912 5911 5910 5908 5907 5905 5903 5901 5900 5899 5897 5894 5893 5891 5890 5889 5889 5888 5888
5909 5911 5912 5914 5915 5915 5917 5917 5918 5920 5921 5922 5922 5923 5923 5923 5923 5922 5922 5922 5922 5922 5921 5920 5919 5918 5917 5917 5915 5913 5912 5911 5909 5908 5906 5904 5902 5901 5899 5898 5896 5895 5893 5891 5890 5889 5887 5886 5885
5909 5910 5912 5913 5915 5916 5917 5918 5918 5920 5921 5921 5922 5922 5922 5922 5922 5922 5922 5922 5922 5921 5920 5919 5919 5917 5916 5915 5914 5912 5911 5910 5908 5906 5905 5903 5901 5899 5898 5897 5895 5894 5892 5889 5888 5887 5886 5885 5883
5909 5911 5912 5913 5914 5915 5917 5918 5918 5919 5920 5920 5921 5922 5922 5922 5922 5921 5921 5921 5921 5920 5920 5919 5918 5917 5915 5914 5912 5910 5909 5908 5906 5904 5903 5901 5899 5897 5895 5894 5893 5892 5889 5887 5886 5884 5883 5882 5882
5909 5911 5911 5912 5914 5915 5916 5917 5918 5918 5919 5920 5920 5921 5922 5921 5920 5920 5920 5919 5919 5918 5918 5917 5916 5915 5913 5912 5911 5909 5907 5905 5903 5902 5900 5898 5896 5894 5892 5891 5890 5889 5887 5885 5883 5881 5881 5879 5879
5908 5909 5911 5912 5913 5915 5916 5916 5916 5917 5918 5918 5919 5919 5920 5920 5919 5919 5919 5918 5918 5917 5916 5915 5915 5913 5911 5910 5908 5906 5904 5902 5900 5898 5896 5894 5893 5890 5890 5888 5886 5885 5883 5881 5879 5878 5877 5876 5875
5908 5910 5910 5911 5912 5914 5914 5914 5915 5915 5916 5916 5917 5917 5918 5918 5918 5918 5917 5916 5916 5915 5914 5912 5911 5910 5909 5907 5904 5902 5900 5898 5895 5893 5891 5889 5888 5887 5885 5883 5882 5880 5878 5877 5875 5873 5872 5871 5871
5907 5908 5909 5910 5910 5911 5912 5912 5913 5914 5914 5914 5915 5916 5916 5916 5916 5915 5915 5914 5913 5912 5910 5909 5908 5906 5904 5903 5900 5898 5896 5893 5891 5888 5886 5885 5883 5882 5880 5879 5877 5875 5873 5871 5870 5867 5865 5864 5864
5905 5907 5907 5907 5908 5908 5909 5910 5910 5911 5911 5912 5913 5914 5914 5913 5913 5912 5912 5911 5910 5908 5907 5906 5904 5902 5900 5897 5895 5893 5890 5888 5886 5884 5882 5880 5879 5877 5875 5873 5871 5869 5868 5866 5863 5861 5860 5858 5856
5903 5904 5905 5905 5905 5906 5906 5907 5907 5908 5909 5909 5910 5909 5910 5910 5910 5909 5908 5908 5906 5905 5904 5902 5900 5898 5895 5892 5890 5888 5885 5883 5881 5879 5877 5875 5874 5872 5869 5867 5865 5862 5860 5858 5856 5855 5853 5851 5851
5900 5901 5902 5903 5902 5902 5903 5904 5904 5904 5905 5905 5906 5906 5906 5906 5906 5905 5904 5904 5902 5901 5899 5897 5894 5892 5889 5887 5884 5882 5879 5877 5875 5873 5871 5869 5867 5865 5862 5859 5857 5854 5852 5850 5848 5846 5845 5843 5842
5898 5898 5899 5899 5899 5899 5899 5899 5900 5901 5901 5901 5901 5901 5902 5902 5901 5901 5900 5899 5898 5896 5894 5891 5888 5885 5883 5881 5878 5876 5873 5871 5869 5867 5865 5863 5861 5857 5854 5851 5847 5845 5843 5841 5839 5838 5836 5834 5833
5893 5894 5894 5895 5895 5894 5893 5896 5897 5894 5894 5895 5896 5896 5896 5896 5896 5896 5895 5894 5892 5891 5888 5885 5882 5879 5876 5873 5871 5869 5867 5865 5862 5860 5858 5855 5852 5848 5845 5842 5840 5837 5833 5831 5829 5826 5825 5824 5823
5889 5889 5889 5889 5890 5889 5888 5892 5890 5891 5889 5890 5890 5890 5891 5891 5891 5890 5889 5888 5886 5885 5882 5878 5875 5872 5869 5866 5863 5861 5860 5857 5854 5851 5849 5846 5842 5838 5835 5833 5829 5827 5825 5822 5820 5817 5814 5810 5808
5884 5884 5882 5882 5885 5882 5884 5886 5883 5887 5883 5884 5884 5884 5885 5885 5885 5884 5884 5882 5880 5878 5875 5872 5868 5865 5862 5859 5856 5853 5851 5849 5845 5842 5839 5835 5832 5828 5825 5821 5817 5815 5812 5809 5806 5803 5800 5798 5795
5876 5879 5877 5876 5879 5876 5878 5879 5876 5879 5878 5877 5878 5879 5879 5880 5879 5878 5878 5875 5873 5870 5866 5864 5861 5857 5854 5851 5848 5845 5842 5839 5836 5833 5829 5825 5821 5817 5812 5809 5805 5801 5797 5793 5789 5785 5781 5777 5776
5871 5872 5871 5870 5867 5871 5871 5871 5870 5870 5872 5872 5873 5872 5872 5872 5872 5871 5870 5867 5864 5861 5859 5855 5852 5849 5847 5842 5839 5836 5833 5830 5827 5823 5819 5815 5810 5804 5800 5795 5791 5785 5780 5775 5770 5765 5761 5757 5752
5865 5865 5865 5864 5860 5862 5864 5862 5864 5864 5865 5865 5865 5865 5866 5864 5864 5863 5863 5859 5856 5854 5850 5846 5843 5840 5837 5834 5830 5827 5823 5820 5817 5813 5809 5804 5797 5792 5786 5780 5774 5768 5761 5755 5749 5744 5739 5733 5724
5859 5858 5857 5855 5853 5855 5853 5854 5856 5857 5856 5859 5859 5857 5858 5857 5856 5855 5855 5851 5848 5845 5842 5837 5834 5832 5829 5825 5822 5818 5814 5810 5806 5801 5796 5790 5784 5777 5771 5763 5755 5748 5741 5734 5726 5718 5708 5700 5692
5850 5848 5848 5847 5844 5845 5844 5844 5847 5850 5850 5850 5850 5849 5849 5848 5848 5847 5847 5843 5839 5836 5833 5829 5826 5823 5820 5817 5813 5809 5805 5800 5795 5789 5783 5776 5769 5761 5753 5745 5737 5729 5720 5711 5699 5686 5671 5657 5646
5840 5840 5839 5837 5835 5834 5835 5832 5841 5841 5841 5844 5841 5840 5842 5841 5839 5838 5836 5834 5830 5827 5824 5820 5816 5813 5810 5807 5804 5800 5795 5790 5784 5777 5770 5762 5754 5745 5736 5728 5719 5710 5697 5682 5669 5654 5636 5616 5600
5831 5829 5828 5826 5824 5822 5827 5824 5830 5832 5831 5832 5835 5832 5832 5832 5830 5829 5826 5823 5821 5818 5814 5810 5807 5804 5801 5798 5793 5789 5785 5779 5772 5764 5756 5747 5739 5729 5720 5710 5700 5687 5672 5654 5636 5617 5600 5584 5569
5821 5820 5818 5815 5811 5814 5818 5814 5818 5822 5822 5822 5824 5821 5822 5821 5820 5818 5816 5813 5810 5808 5804 5801 5799 5796 5792 5788 5783 5779 5773 5767 5759 5751 5742 5733 5725 5715 5704 5693 5681 5665 5646 5625 5603 5589 5573 5556 5544
5811 5808 5807 5802 5804 5806 5804 5802 5808 5812 5813 5813 5813 5813 5813 5811 5809 5807 5805 5803 5801 5797 5795 5792 5789 5786 5782 5777 5772 5767 5761 5754 5747 5738 5729 5720 5711 5700 5688 5675 5659 5640 5620 5600 5581 5567 5550 5537 5530
5801 5796 5803 5795 5796 5793 5796 5797 5799 5801 5801 5801 5804 5804 5804 5801 5799 5797 5796 5793 5791 5788 5786 5783 5780 5776 5772 5766 5762 5755 5748 5742 5734 5725 5716 5706 5697 5686 5672 5657 5640 5618 5599 5581 5565 5551 5537 5528 5524
5787 5788 5788 5786 5785 5783 5784 5787 5789 5791 5789 5790 5793 5793 5792 5790 5789 5788 5786 5784 5781 5779 5777 5773 5770 5766 5761 5756 5750 5744 5737 5730 5721 5713 5703 5693 5683 5671 5658 5641 5622 5601 5583 5567 5553 5540 5529 5524 5520
5780 5778 5775 5777 5775 5773 5772 5774 5781 5781 5781 5782 5783 5782 5780 5778 5779 5778 5776 5773 5772 5769 5766 5762 5759 5755 5750 5744 5738 5732 5726 5718 5709 5700 5690 5680 5670 5657 5641 5625 5606 5588 5571 5557 5545 5533 5527 5520 5516
5759 5762 5763 5759 5764 5763 5762 5760 5772 5773 5773 5773 5773 5772 5770 5768 5767 5768 5766 5764 5762 5758 5755 5752 5747 5744 5738 5733 5727 5721 5714 5706 5697 5688 5678 5668 5657 5643 5626 5609 5593 5576 5560 5547 5536 5528 5523 5517 5514
Wind_Speed
12 16 17 18 16 14 13 12 11 10 8 6 6 6 8 9 13 14 13 10 9 9 12 15 16 18 18 18 20 21 21 20 21 23 25 27 28 26 22 23 20 17 15 14 13 11 12 11 10
13 16 18 17 16 13 11 9 8 8 7 6 6 7 9 12 13 13 11 9 7 7 11 13 16 19 19 19 19 19 19 21 21 24 25 27 27 27 24 20 20 20 20 18 16 15 14 15 15
16 18 18 15 14 13 11 9 7 7 7 6 5 6 11 13 15 12 10 7 7 8 8 10 14 18 20 20 19 17 18 20 21 22 23 25 28 28 25 25 23 22 20 21 19 18 19 18 17
18 19 16 13 10 8 8 8 7 7 7 6 6 7 13 13 14 10 7 6 6 7 9 11 16 22 24 23 19 17 16 17 19 20 22 25 25 27 29 27 24 22 21 22 24 23 23 21 21
18 17 13 9 8 7 7 8 7 7 6 5 7 10 13 16 14 11 6 2 3 6 9 12 19 23 24 24 23 20 17 17 19 21 22 24 25 27 29 30 26 25 23 26 26 25 25 24 23
15 15 12 10 9 8 7 8 8 7 6 7 9 11 15 15 13 11 7 1 3 4 9 15 20 22 21 23 23 23 22 22 23 24 25 26 27 29 28 30 30 27 27 27 28 29 28 27 25
15 12 11 11 8 9 9 9 9 9 8 7 11 13 15 17 16 12 6 4 5 9 13 18 22 22 20 21 22 21 20 21 21 23 25 28 31 31 32 32 32 30 29 29 29 30 29 28 25
15 14 12 11 10 9 10 10 11 8 7 10 10 14 17 17 15 13 9 8 9 13 18 21 21 21 23 23 21 21 22 23 24 26 27 29 29 30 29 31 32 31 30 32 31 33 33 31 30
14 13 13 12 11 9 10 11 11 10 10 11 13 16 17 16 15 14 12 12 14 19 22 22 25 27 27 26 25 23 23 24 25 27 29 29 28 29 30 30 31 33 34 34 35 36 36 36 32
14 14 12 12 11 11 12 12 13 11 11 11 16 16 16 17 17 16 15 17 20 24 26 26 29 30 30 29 27 26 26 25 24 25 24 24 25 29 30 31 31 33 36 38 38 39 40 41 38
15 13 13 14 14 14 15 14 15 12 12 13 19 18 18 19 20 21 22 23 25 26 27 29 31 31 32 31 29 29 30 26 24 23 24 26 27 29 31 33 35 36 38 39 41 42 42 43 44
16 14 15 15 17 17 17 15 17 15 13 15 17 24 22 23 25 26 26 26 26 28 30 32 32 32 32 32 31 31 29 25 24 25 26 27 28 32 35 37 38 41 42 43 43 43 45 46 45
17 17 17 18 19 19 19 18 18 17 18 18 19 21 24 25 26 26 27 25 27 30 33 34 34 35 34 33 33 32 29 26 26 29 30 31 34 38 42 42 41 41 42 43 43 44 45 47 47
20 22 20 20 20 21 22 22 20 19 21 21 22 22 23 25 26 26 25 26 30 33 35 35 36 36 35 35 34 31 27 25 28 32 33 36 39 42 43 43 42 41 40 40 41 43 45 46 48
23 24 23 21 22 23 26 23 21 26 26 25 26 25 25 26 25 26 26 30 32 34 35 36 36 36 36 37 35 31 27 28 32 35 37 39 43 44 43 42 40 39 40 41 42 43 46 49 51
26 26 26 26 25 27 30 23 28 25 29 27 28 28 27 27 26 26 29 31 34 36 34 35 37 37 38 39 36 33 30 31 35 38 40 45 45 43 42 43 42 40 41 42 44 47 50 51 52
28 28 30 31 28 32 31 28 32 26 33 30 30 30 27 27 26 28 30 33 36 36 36 37 38 38 39 41 38 34 33 36 39 42 45 48 46 44 46 46 46 46 47 49 50 51 52 55 59
35 30 33 35 31 35 32 31 35 31 33 33 30 29 28 27 29 30 33 37 38 38 39 39 39 40 41 42 37 36 37 40 43 46 49 49 49 50 51 51 51 53 54 56 57 57 60 60 62
36 34 36 36 40 34 34 36 37 36 33 33 30 32 31 29 31 32 35 39 41 41 42 42 42 41 42 41 38 38 40 44 48 49 50 50 53 54 55 56 58 58 57 60 62 64 65 67 71
38 39 40 40 44 40 36 40 37 36 34 32 33 34 31 32 34 34 36 42 45 43 43 43 42 42 42 40 40 42 45 48 50 52 51 53 55 56 57 60 62 63 65 68 69 73 78 81 86
41 42 42 45 46 43 44 41 38 37 36 33 34 36 32 34 36 37 39 44 46 44 43 43 43 42 41 41 43 46 49 49 53 54 52 57 58 59 62 65 68 70 72 76 80 85 91 95 97
44 45 46 45 48 46 46 45 41 35 34 35 36 34 33 36 39 41 43 45 45 44 42 42 43 42 41 43 45 48 49 51 55 53 56 59 62 64 66 69 72 75 79 85 91 97 102 107 106
47 47 46 46 47 47 48 49 39 38 37 33 36 34 33 38 41 44 47 45 44 41 39 42 42 43 44 46 47 48 51 54 54 54 59 63 64 67 70 72 75 79 88 96 102 106 106 93 84
46 44 45 45 47 50 44 44 42 38 40 40 38 38 37 40 44 46 46 44 41 38 40 42 44 43 44 45 47 50 53 54 54 58 63 64 67 70 71 75 79 89 97 105 108 99 88 81 76
45 44 45 47 49 48 43 46 44 42 41 42 41 42 40 44 45 45 44 41 38 38 41 42 42 41 44 48 51 52 52 53 56 61 64 66 69 71 75 78 87 96 104 107 97 88 81 70 60
43 45 47 48 46 46 47 50 46 42 42 42 42 43 42 45 46 45 42 39 37 39 40 40 43 46 48 49 50 51 51 54 58 63 65 68 69 74 77 84 93 101 106 94 86 79 68 53 36
47 50 42 47 47 49 48 47 43 42 43 44 42 40 39 44 45 43 40 38 39 40 41 42 45 46 46 48 49 50 52 55 61 63 66 68 71 74 80 89 97 103 94 83 73 70 53 26 18
49 49 49 48 50 51 50 47 46 45 48 46 40 41 41 42 42 40 38 38 39 40 42 44 44 45 47 48 48 51 53 57 61 65 67 70 72 76 83 92 101 91 83 71 69 60 26 18 17
49 49 53 51 52 53 55 52 47 49 50 48 47 45 43 45 42 38 37 38 39 40 43 44 44 45 47 48 50 51 52 58 61 65 66 69 73 79 85 96 89 80 77 64 67 33 22 17 17
59 57 57 61 57 57 58 59 52 51 51 51 49 42 40 45 45 38 37 38 39 41 43 44 45 46 47 48 50 50 55 58 63 63 67 70 75 80 88 90 75 74 75 60 60 26 21 22 22
Wind_Direction
160 157 158 158 153 143 139 143 142 144 145 149 145 118 109 98 101 106 112 105 94 79 61 52 45 38 34 31 25 22 18 17 13 15 15 11 9 13 13 15 10 1 349 337 330 322 304 288 277
163 164 162 163 157 157 156 151 154 153 157 153 132 117 120 123 126 119 113 110 91 74 62 47 37 32 27 21 15 14 11 5 7 7 9 6 9 10 10 9 8 11 1 347 330 319 314 304 297
168 164 162 165 170 162 151 151 166 161 156 152 140 130 136 139 141 126 121 92 63 47 47 30 16 19 18 16 9 4 3 0 359 358 357 3 7 5 2 358 358 10 13 16 5 339 320 309 301
167 164 168 171 172 162 161 165 174 170 163 157 160 152 149 151 149 138 119 72 44 29 22 6 5 8 4 4 4 3 352 346 346 348 345 344 352 353 359 355 353 353 357 2 1 359 358 335 311
171 170 174 179 192 188 182 180 177 177 171 167 168 169 166 163 161 154 149 93 4 10 9 6 2 360 360 357 354 353 349 341 336 338 342 339 341 345 347 350 346 343 339 340 342 343 342 344 344
180 182 188 196 200 201 195 193 193 192 184 180 183 179 174 170 175 185 198 301 331 355 354 348 348 349 352 350 346 342 337 336 334 331 329 329 331 334 336 337 339 335 332 331 330 331 330 331 336
190 196 208 211 208 208 202 205 203 206 199 184 190 188 182 185 195 204 224 266 298 327 333 339 338 339 339 341 339 333 323 316 314 312 315 319 323 327 327 329 329 329 329 326 325 326 322 323 322
198 205 218 225 218 213 211 209 219 220 198 201 208 200 198 205 216 225 237 257 302 323 327 329 330 330 330 330 330 326 320 313 308 305 304 306 310 313 315 317 318 319 319 318 317 315 320 315 313
207 216 224 231 227 216 220 224 232 229 222 203 205 208 213 219 225 235 243 269 301 314 319 325 325 325 326 324 324 322 318 312 306 302 300 303 306 305 308 310 310 311 312 311 311 309 309 311 307
215 223 230 239 238 229 231 232 241 238 228 211 214 219 225 229 233 245 265 284 299 310 317 320 320 319 318 318 319 319 318 311 306 302 302 304 307 309 309 307 306 305 305 305 305 304 304 305 304
225 229 233 244 244 242 243 242 244 242 235 222 221 228 235 242 249 264 276 288 301 309 311 312 311 312 313 318 318 317 315 309 305 303 304 307 309 309 308 308 307 303 299 298 299 299 298 300 302
233 235 243 248 249 250 249 249 250 246 243 234 226 230 241 250 259 269 279 289 299 301 306 305 306 309 311 314 314 313 310 304 301 301 301 302 306 306 306 305 304 301 299 297 297 295 296 296 296
240 248 247 250 253 253 254 248 251 249 240 238 235 238 245 253 261 270 279 287 295 300 302 304 307 308 310 310 311 311 307 301 301 303 304 300 303 304 304 305 304 301 297 295 294 295 294 293 293
246 250 256 257 258 257 255 253 255 253 248 241 241 242 246 253 260 269 278 286 293 297 302 305 305 307 308 309 309 309 300 293 297 300 301 301 302 302 303 301 299 296 294 292 293 293 292 292 291
254 258 261 261 259 259 259 257 252 247 245 241 243 246 249 256 263 271 282 288 293 298 302 305 305 307 308 308 308 305 295 290 295 299 302 304 304 302 300 298 297 296 294 292 292 293 292 290 287
263 267 267 260 262 262 262 257 253 254 253 250 249 249 253 259 268 277 283 288 294 299 304 303 305 305 305 308 307 302 295 294 299 302 305 305 303 301 299 297 295 294 291 289 289 290 289 287 285
267 267 265 265 260 265 263 257 260 251 256 253 252 254 255 263 271 276 282 289 295 301 302 304 303 302 305 308 304 299 297 300 302 305 305 306 304 302 299 297 294 293 292 292 291 291 290 291 289
260 262 270 270 261 265 266 261 260 255 252 258 257 258 259 261 267 277 284 289 296 300 302 304 301 302 304 305 300 298 299 302 304 304 305 306 304 303 299 298 298 297 295 293 292 290 287 283 282
270 268 264 266 269 267 267 261 256 260 254 260 257 254 256 260 270 278 288 291 296 299 301 301 299 301 304 302 299 298 300 301 303 303 304 305 304 303 301 301 299 298 296 296 296 295 293 289 284
265 264 267 267 268 271 266 263 256 258 260 254 256 258 260 263 272 282 288 290 295 296 297 296 299 301 303 299 298 299 300 300 301 303 303 304 305 303 302 302 302 302 301 300 298 297 295 293 291
263 265 266 267 270 271 268 264 258 255 261 257 259 261 261 264 274 282 289 289 293 293 294 296 297 299 298 296 297 298 299 299 302 305 305 306 305 305 306 306 307 306 303 301 300 300 298 295 291
264 265 266 269 269 270 266 266 259 258 259 260 259 261 260 267 275 281 288 291 291 292 293 293 295 296 296 297 297 297 297 301 306 306 307 307 309 309 309 309 308 306 305 305 305 303 299 297 294
265 268 270 269 269 267 268 267 261 256 260 254 258 264 261 269 277 284 290 291 290 290 291 292 294 294 297 297 297 297 298 302 305 307 307 310 311 311 312 311 309 309 309 309 307 305 305 301 297
266 267 266 265 264 265 265 262 261 259 258 259 257 265 271 275 281 287 290 290 289 290 290 291 292 296 297 297 296 297 301 304 307 308 311 313 313 313 313 312 312 314 313 311 310 313 310 305 299
264 265 265 263 261 267 264 262 264 260 265 263 264 273 280 285 287 288 287 287 288 289 289 291 293 295 298 297 298 301 303 305 308 312 315 314 315 314 313 313 316 316 314 315 317 315 312 306 299
262 259 257 259 264 266 259 259 263 263 264 267 269 274 281 284 285 285 285 287 288 289 289 291 293 296 298 298 301 303 303 306 311 315 315 315 315 315 315 317 319 318 319 320 316 316 313 307 302
262 259 265 261 260 263 263 265 266 267 267 271 269 277 283 283 283 283 286 286 286 286 289 292 296 298 299 302 304 304 306 309 314 315 316 316 317 317 319 320 321 322 323 321 317 321 312 303 308
258 265 259 259 262 263 268 266 267 268 269 272 276 288 287 280 279 282 284 284 284 288 291 296 299 299 300 303 305 308 309 311 315 316 317 317 319 320 321 323 324 325 326 322 319 323 303 308 313
267 263 265 266 261 263 266 266 266 269 273 280 284 288 283 280 280 284 284 284 288 291 294 298 300 301 302 304 307 310 310 314 315 317 318 320 321 323 325 326 327 330 333 323 325 310 310 317 305
260 258 257 258 261 266 270 266 271 274 278 281 286 282 278 280 283 285 284 286 290 293 295 299 301 303 305 307 311 310 312 315 316 318 320 321 323 325 328 330 329 333 337 327 330 298 313 313 300